CAPE
0 0 142 188 222 227 101 4 0 0 0 0 0 0 0 0 12 46 31 30 46 26 12 9 6 4 4 3 5 6 6 6 4 4 7 1 2 4 3 5 5 5 6
2 0 0 50 153 227 15 0 0 0 0 0 0 0 0 0 36 38 34 24 3 6 12 7 7 6 6 5 4 5 5 5 6 5 2 3 5 6 5 4 5 5 5
0 0 0 0 0 1 1 0 0 0 0 11 0 0 11 26 20 31 33 11 14 7 6 10 7 8 9 7 7 6 4 5 5 5 5 2 3 3 1 0 0 0 1
0 0 0 0 0 1 0 1 0 0 3 0 0 9 0 6 14 24 21 17 6 2 7 5 3 5 8 4 8 4 6 6 6 4 3 3 2 0 0 1 1 2 1
0 0 0 0 0 1 0 0 0 0 0 0 0 0 0 1 6 14 26 13 1 0 4 4 2 0 5 2 5 8 5 4 3 3 3 3 0 0 3 2 1 2 3
0 0 0 0 0 1 0 0 0 0 1 1 0 0 0 0 0 2 9 1 0 0 0 0 0 0 4 1 6 4 4 2 1 1 0 0 0 3 5 3 3 3 4
0 0 0 0 0 3 0 0 2 33 5 0 0 1 1 0 0 0 0 0 0 0 0 0 0 0 5 1 5 5 2 0 0 0 0 0 0 2 3 3 3 2 1
0 0 24 2 0 1 2 0 3 12 1 0 5 0 1 0 0 0 0 1 0 0 0 0 0 0 0 0 0 2 0 0 0 0 0 0 0 2 1 1 3 3 4
0 0 26 43 32 5 9 7 5 10 8 1 0 0 0 0 1 0 0 0 0 0 0 0 0 0 0 0 0 0 0 0 0 0 0 0 1 1 1 4 4 4 4
0 0 25 46 57 36 14 3 2 2 4 1 1 0 0 0 0 0 0 0 0 0 0 0 0 0 0 0 0 0 0 0 0 0 0 0 1 2 4 5 4 2 2
0 0 0 31 31 41 27 8 6 0 8 4 4 0 0 0 0 0 2 0 0 0 0 0 0 0 0 0 0 0 0 0 0 0 0 0 0 3 4 4 3 2 4
0 0 0 0 27 43 48 35 11 0 2 0 0 1 0 0 0 0 0 0 1 0 0 0 0 0 0 0 0 0 0 0 0 0 0 0 0 0 1 2 2 3 4
0 0 0 0 1 34 35 60 32 6 5 5 0 0 0 0 0 0 0 0 0 0 0 0 0 0 0 0 0 0 0 0 0 0 0 0 0 0 0 0 1 3 7
0 0 0 0 0 15 40 62 37 29 10 7 16 1 0 0 0 0 0 0 0 0 0 0 0 0 0 0 0 0 0 0 0 0 0 0 0 0 0 0 0 1 3
0 0 0 0 0 1 30 49 31 39 28 3 8 0 0 0 0 0 0 0 0 0 0 0 0 0 0 0 0 0 0 0 0 0 0 0 0 0 0 0 1 1 2
2 2 1 0 0 0 31 31 32 31 30 6 2 0 0 0 0 0 0 0 0 0 0 0 0 0 0 0 0 0 0 0 0 0 0 0 0 0 0 0 0 0 1
0 1 0 0 0 0 31 62 44 21 12 2 0 1 0 0 0 0 0 0 0 0 0 0 0 0 0 0 0 0 0 0 0 0 0 0 0 0 0 0 0 0 0
0 1 1 0 5 30 35 20 9 12 0 0 0 0 0 0 0 0 0 0 0 0 0 0 0 0 0 0 0 0 0 0 0 0 0 0 0 0 0 0 0 0 0
3 2 6 5 27 17 7 1 0 0 1 1 2 2 0 0 0 0 0 0 0 0 0 0 0 0 0 0 0 0 0 0 0 0 0 0 0 0 0 0 0 0 0
0 8 11 0 16 0 0 0 1 0 0 1 1 1 0 0 0 0 0 0 0 0 0 0 0 0 0 0 0 0 0 0 0 0 0 0 0 0 0 0 0 0 0
0 3 0 0 1 1 1 1 0 1 0 0 0 0 0 0 0 0 0 0 0 0 0 0 0 0 0 0 0 0 0 0 0 0 0 0 0 0 0 0 0 0 0
3 0 0 1 2 2 1 0 0 0 0 0 0 0 0 0 0 0 0 0 0 0 0 0 0 0 0 0 0 0 0 0 0 0 0 0 0 0 0 0 0 0 0
0 1 1 0 3 3 3 1 0 0 0 0 0 0 0 0 0 0 0 0 0 0 0 0 0 0 0 0 0 0 0 0 0 0 0 0 0 0 0 0 0 0 0
1 2 2 3 2 2 3 0 0 0 0 0 0 0 0 0 0 0 0 0 0 0 0 0 0 0 0 0 0 0 0 0 0 0 0 0 0 0 0 0 0 0 0
0 0 1 1 2 2 1 0 0 0 0 0 0 0 0 0 0 0 0 0 0 0 0 0 0 0 0 0 0 0 0 0 0 0 0 0 0 0 0 0 0 0 0
1 1 1 1 2 0 0 0 0 0 0 0 0 0 0 0 0 0 0 0 0 0 0 0 0 0 0 0 0 0 0 0 0 0 0 0 0 0 0 0 0 0 0
CIN
-0 -0 -29 -27 -21 -16 -23 -44 -0 -0 -0 -0 -0 -0 -0 -0 -45 -39 -52 -35 -5 -1 -22 -0 -0 -0 -0 -0 -0 -0 -1 -0 -0 -0 -0 -0 -2 -0 -0 -0 -0 -0 -0
-3 -0 -0 -27 -10 -0 -13 -0 -0 -0 -0 -0 -0 -0 -0 -0 -52 -49 -69 -42 -3 -1 -0 -0 -0 -1 -0 -0 -0 -0 -0 -0 -0 -0 -0 -0 -0 -0 -0 -0 -0 -0 -0
-0 -0 -0 -0 -0 -1 -3 -0 -0 -1 -0 -33 -0 -0 -61 -49 -47 -55 -63 -41 -14 -18 -1 -0 -0 -0 -0 -1 -1 -1 -1 -0 -0 -0 -0 -0 -0 -0 -0 -1 -0 -0 -0
-0 -0 -0 -0 -0 -3 -0 -14 -0 -0 -0 -0 -0 -62 -0 -94 -88 -73 -56 -41 -24 -11 -3 -0 -1 -0 -0 -1 -0 -0 -0 -0 -0 -0 -0 -1 -0 -0 -0 -0 -0 -0 -0
-0 -0 -0 -0 -0 -1 -4 -4 -0 -0 -0 -0 -0 -6 -0 -62 -91 -88 -48 -52 -30 -0 -10 -1 -2 -0 -1 -0 -0 -0 -0 -1 -0 -0 -0 -0 -0 -0 -0 -0 -0 -0 -0
-0 -0 -0 -0 -0 -1 -0 -0 -10 -0 -0 -0 -0 -0 -0 -0 -0 -45 -90 -118 -0 -0 -0 -0 -0 -0 -1 -2 -0 -0 -0 -0 -0 -0 -0 -0 -0 -0 -0 -0 -0 -0 -0
-0 -0 -0 -0 -0 -0 -0 -0 -38 -19 -45 -0 -0 -0 -0 -0 -0 -0 -0 -0 -0 -0 -0 -0 -0 -0 -3 -4 -0 -0 -0 -0 -0 -0 -0 -0 -0 -0 -0 -0 -0 -0 -0
-0 -0 -26 -4 -0 -0 -4 -0 -46 -20 -21 -0 -25 -0 -0 -0 -0 -0 -0 -53 -0 -0 -0 -0 -0 -0 -0 -0 -0 -0 -0 -0 -0 -0 -0 -0 -0 -0 -0 -0 -0 -0 -0
-0 -0 -23 -20 -17 -14 -10 -20 -37 -32 -13 -0 -0 -13 -0 -0 -0 -0 -0 -0 -0 -0 -0 -0 -0 -0 -0 -0 -0 -0 -0 -0 -0 -0 -0 -0 -0 -0 -0 -0 -0 -0 -0
-0 -0 -15 -13 -16 -18 -15 -15 -20 -10 -13 -43 -0 -0 -0 -0 -0 -0 -0 -0 -0 -0 -0 -0 -0 -0 -0 -0 -0 -0 -0 -0 -0 -0 -0 -0 -0 -0 -0 -0 -0 -0 -0
-0 -0 -0 -9 -11 -16 -17 -15 -12 -4 -9 -36 -43 -0 -0 -0 -0 -0 -0 -0 -0 -0 -0 -0 -0 -0 -0 -0 -0 -0 -0 -0 -0 -0 -0 -0 -0 -0 -0 -0 -0 -0 -0
-0 -0 -0 -0 -8 -12 -12 -26 -23 -0 -6 -0 -1 -30 -0 -0 -0 -0 -0 -0 -0 -0 -0 -0 -0 -0 -0 -0 -0 -0 -0 -0 -0 -0 -0 -0 -0 -0 -0 -0 -0 -0 -0
-0 -0 -0 -0 -11 -10 -15 -22 -27 -14 -9 -7 -0 -0 -0 -0 -0 -0 -0 -0 -0 -0 -0 -0 -0 -0 -0 -0 -0 -0 -0 -0 -0 -0 -0 -0 -0 -0 -0 -0 -0 -0 -0
-0 -0 -0 -0 -0 -9 -11 -28 -25 -21 -10 -11 -26 -34 -0 -0 -0 -0 -0 -0 -0 -0 -0 -0 -0 -0 -0 -0 -0 -0 -0 -0 -0 -0 -0 -0 -0 -0 -0 -0 -0 -0 -0
-1 -1 -0 -0 -0 -0 -12 -20 -31 -13 -10 -14 -21 -0 -0 -0 -0 -0 -0 -0 -0 -0 -0 -0 -0 -0 -0 -0 -0 -0 -0 -0 -0 -0 -0 -0 -0 -0 -0 -0 -0 -0 -0
-2 -2 -1 -1 -1 -0 -9 -23 -26 -30 -22 -23 -46 -0 -0 -0 -0 -0 -0 -0 -0 -0 -0 -0 -0 -0 -0 -0 -0 -0 -0 -0 -0 -0 -0 -0 -0 -0 -0 -0 -0 -0 -0
-3 -0 -0 -0 -1 -0 -12 -11 -18 -30 -39 -19 -7 -0 -0 -0 -0 -0 -0 -0 -0 -0 -0 -0 -0 -0 -0 -0 -0 -0 -0 -0 -0 -0 -0 -0 -0 -0 -0 -0 -0 -0 -0
-0 -5 -25 -1 -1 -0 -14 -13 -63 -42 -1 -0 -0 -0 -0 -0 -0 -0 -0 -0 -0 -0 -0 -0 -0 -0 -0 -0 -0 -0 -0 -0 -0 -0 -0 -0 -0 -0 -0 -0 -0 -0 -0
-10 -17 -15 -9 -0 -3 -24 -0 -0 -0 -0 -0 -0 -0 -0 -0 -0 -0 -0 -0 -0 -0 -0 -0 -0 -0 -0 -0 -0 -0 -0 -0 -0 -0 -0 -0 -0 -0 -0 -0 -0 -0 -0
-9 -1 -18 -7 -3 -0 -0 -0 -0 -0 -0 -0 -0 -0 -0 -0 -0 -0 -0 -0 -0 -0 -0 -0 -0 -0 -0 -0 -0 -0 -0 -0 -0 -0 -0 -0 -0 -0 -0 -0 -0 -0 -0
-0 -2 -0 -10 -0 -0 -0 -0 -0 -0 -0 -0 -0 -0 -0 -0 -0 -0 -0 -0 -0 -0 -0 -0 -0 -0 -0 -0 -0 -0 -0 -0 -0 -0 -0 -0 -0 -0 -0 -0 -0 -0 -0
-0 -0 -0 -0 -0 -0 -0 -0 -0 -0 -0 -0 -0 -0 -0 -0 -0 -0 -0 -0 -0 -0 -0 -0 -0 -0 -0 -0 -0 -0 -0 -0 -0 -0 -0 -0 -0 -0 -0 -0 -0 -0 -0
-0 -0 -0 -0 -0 -0 -0 -0 -0 -0 -0 -0 -0 -0 -0 -0 -0 -0 -0 -0 -0 -0 -0 -0 -0 -0 -0 -0 -0 -0 -0 -0 -0 -0 -0 -0 -0 -0 -0 -0 -0 -0 -0
-0 -0 -0 -0 -0 -0 -0 -0 -0 -0 -0 -0 -0 -0 -0 -0 -0 -0 -0 -0 -0 -0 -0 -0 -0 -0 -0 -0 -0 -0 -0 -0 -0 -0 -0 -0 -0 -0 -0 -0 -0 -0 -0
-0 -0 -0 -0 -0 -0 -0 -0 -0 -0 -0 -0 -0 -0 -0 -0 -0 -0 -0 -0 -0 -0 -0 -0 -0 -0 -0 -0 -0 -0 -0 -0 -0 -0 -0 -0 -0 -0 -0 -0 -0 -0 -0
-0 -0 -0 -0 -0 -0 -0 -0 -0 -0 -0 -0 -0 -0 -0 -0 -0 -0 -0 -0 -0 -0 -0 -0 -0 -0 -0 -0 -0 -0 -0 -0 -0 -0 -0 -0 -0 -0 -0 -0 -0 -0 -0
Wind_Speed
22 22 24 24 22 21 21 22 22 21 22 19 20 19 16 16 15 11 11 8 6 6 3 2 3 4 5 7 7 7 8 8 8 9 9 10 11 11 12 13 13 14 15
20 21 23 24 24 24 25 24 24 22 23 21 21 19 17 17 12 10 9 5 2 5 5 4 4 4 5 6 7 7 7 8 9 9 9 10 10 11 12 13 14 15 16
21 22 24 26 26 27 25 23 21 17 16 17 17 16 16 15 11 10 9 8 8 7 6 5 5 5 6 6 7 8 8 8 9 9 10 10 11 11 12 13 14 15 15
18 21 23 25 26 25 23 22 22 22 22 15 17 15 15 14 14 12 10 10 11 11 10 8 6 7 6 7 8 9 9 9 9 10 10 11 12 13 13 14 15 16 16
18 19 21 23 22 24 23 21 21 19 19 18 13 16 17 15 14 14 13 14 15 15 14 10 7 7 7 7 9 9 10 11 11 11 12 13 14 13 13 14 16 17 17
21 20 22 22 21 23 23 24 24 24 24 22 23 20 16 16 13 15 14 16 14 14 12 12 10 9 9 8 9 11 12 12 13 13 14 15 15 14 15 16 17 18 19
26 23 23 23 23 23 23 21 22 22 22 22 21 21 20 19 15 13 10 14 16 14 16 14 14 12 11 10 11 13 13 14 14 15 15 15 15 15 16 17 18 20 20
27 23 24 23 22 24 23 21 21 22 25 22 28 26 28 26 22 20 18 14 16 16 16 16 13 13 13 13 13 14 15 16 16 16 16 16 16 16 17 18 20 21 22
25 23 23 23 22 22 25 23 22 23 28 25 24 27 29 29 24 23 22 18 13 15 15 13 17 17 15 15 16 18 18 18 17 18 18 18 18 18 19 20 21 23 23
29 24 17 18 25 23 24 25 25 26 25 29 26 29 25 25 29 28 25 21 18 18 17 14 14 19 17 17 18 19 19 18 18 19 19 19 19 20 21 23 24 24 24
29 28 24 17 17 24 26 26 25 26 26 26 29 28 30 28 23 27 29 25 22 22 18 17 14 18 21 20 18 18 21 20 19 19 19 20 21 22 23 25 26 25 25
30 29 28 24 20 18 22 24 24 24 26 26 25 27 28 29 28 25 26 25 25 28 25 23 20 21 20 21 18 16 17 20 20 20 20 21 21 23 24 25 26 26 26
32 30 29 29 25 21 18 19 21 23 23 24 23 25 28 29 24 24 23 25 28 26 25 23 21 20 20 16 17 17 16 18 21 19 21 22 23 24 25 25 26 25 26
31 30 30 30 30 24 21 20 19 20 23 24 24 23 24 24 24 22 21 19 26 28 27 24 21 19 18 17 16 16 18 19 18 19 18 23 25 25 25 26 25 25 25
31 29 30 30 29 26 23 20 20 20 21 24 23 22 21 22 25 25 23 20 21 26 27 23 23 20 18 17 16 16 17 17 19 20 21 23 24 24 24 25 24 25 25
35 34 31 30 28 24 19 18 20 20 21 25 24 21 19 18 19 21 20 19 21 23 26 24 23 20 18 17 17 17 18 19 20 22 22 23 24 25 24 23 24 25 26
33 29 26 27 24 17 16 16 18 20 22 25 21 21 17 15 16 20 16 16 18 18 21 19 18 17 17 16 17 19 19 22 23 23 22 23 24 25 23 22 25 27 28
26 20 21 21 18 15 13 14 15 18 21 21 21 16 15 14 17 19 18 22 19 16 16 19 18 17 18 15 16 17 19 20 23 22 22 23 24 22 22 25 27 27 27
21 17 19 20 13 13 11 12 12 14 17 18 18 16 14 13 12 17 11 13 12 14 16 16 17 16 15 14 15 17 19 21 22 21 22 22 22 23 24 26 26 26 27
24 15 25 7 9 6 8 11 9 12 13 17 14 14 12 10 8 13 17 12 14 14 15 13 15 13 14 14 14 16 18 19 21 21 20 22 24 25 26 26 26 25 26
21 13 9 8 7 5 8 11 6 8 8 13 13 11 12 12 11 14 13 12 11 14 14 13 13 13 15 15 16 15 17 18 19 19 21 23 25 24 23 24 26 27 30
17 14 11 8 3 3 8 10 6 4 4 8 9 7 9 6 7 11 10 11 10 8 10 12 11 8 11 12 11 14 17 19 21 17 23 26 23 24 25 27 27 31 30
18 13 11 8 5 4 8 5 6 3 2 6 6 5 5 6 5 4 5 6 7 7 7 6 4 7 8 9 10 13 16 19 22 21 24 26 24 26 26 29 32 29 26
12 9 10 5 1 6 3 4 4 3 1 4 4 4 2 3 3 4 5 6 8 8 8 7 7 9 10 10 12 14 17 20 23 24 23 26 25 29 30 31 27 24 24
10 14 10 5 5 2 3 4 5 3 2 4 4 4 3 2 3 4 6 6 7 8 9 10 10 11 11 12 14 16 20 24 26 24 24 26 28 32 31 28 24 24 31
16 18 11 7 8 5 4 4 6 5 4 3 4 5 5 6 6 6 7 7 7 7 9 9 11 13 14 16 18 19 20 24 25 26 23 30 29 31 31 26 25 32 35
Wind_Direction
301 299 294 289 285 281 275 273 275 279 280 277 282 282 271 275 287 280 294 293 266 209 207 281 322 348 3 12 18 21 21 18 18 18 12 5 360 359 357 1 4 5 6
305 303 299 295 288 285 283 282 281 278 272 277 277 276 271 278 279 275 289 287 197 243 245 269 293 316 331 348 358 357 357 358 353 355 359 2 357 355 353 353 354 355 357
304 301 299 295 290 286 281 280 285 284 276 280 281 278 279 275 276 274 277 269 252 246 241 257 279 298 309 321 334 341 340 341 345 344 347 349 350 349 348 349 350 351 352
312 306 302 298 293 288 284 278 271 270 278 275 274 283 276 274 276 272 268 270 261 257 261 257 269 285 296 303 319 327 330 330 332 333 337 340 339 339 341 342 342 344 345
307 305 304 302 298 290 284 275 271 262 263 268 271 271 270 271 271 271 265 268 272 258 259 259 268 278 288 296 308 317 321 321 322 322 325 326 328 332 337 338 338 338 339
300 297 298 299 297 293 288 276 269 266 265 261 262 263 279 276 275 266 266 267 260 261 255 266 268 277 278 293 300 309 314 315 314 314 316 318 321 326 328 330 333 333 334
302 294 293 292 290 286 285 279 272 261 263 260 252 269 271 275 266 271 271 266 254 262 265 266 267 276 276 287 292 301 306 308 309 310 312 314 317 321 324 326 329 330 330
301 298 290 288 283 283 279 276 270 264 266 253 260 265 263 269 268 268 265 265 262 257 259 260 270 272 278 286 290 297 304 304 304 306 309 312 315 318 320 322 324 325 326
302 299 292 284 279 279 274 272 266 261 265 257 254 265 261 262 260 268 268 268 257 261 262 258 262 266 276 285 290 295 299 300 301 302 304 307 310 313 315 317 320 321 321
304 301 295 289 278 275 272 269 267 265 262 259 258 261 260 266 259 262 263 267 270 265 263 259 258 263 272 282 290 294 298 298 299 301 302 304 307 309 312 314 316 317 318
302 301 299 288 282 276 271 267 264 261 262 257 259 252 262 266 258 262 261 261 265 266 268 266 271 268 271 278 288 293 291 293 298 302 302 303 304 307 309 311 312 314 315
301 298 295 295 282 276 269 263 259 258 261 261 255 256 252 257 256 261 264 258 261 260 267 269 274 274 275 280 289 291 293 293 297 299 300 302 304 307 310 311 312 313 314
299 297 295 289 288 276 268 259 255 255 256 258 251 258 258 258 254 262 262 262 261 265 270 273 275 275 279 285 283 290 291 296 297 304 299 302 303 306 308 310 312 314 312
300 296 296 290 284 278 269 259 254 252 253 256 255 255 256 256 253 254 259 254 268 268 269 276 276 277 279 280 282 284 288 291 299 304 308 300 302 306 309 309 313 313 313
301 298 295 290 284 279 268 260 252 251 254 251 257 254 255 253 254 255 257 259 266 266 264 273 281 279 279 280 281 283 288 293 295 300 302 304 304 307 312 310 313 313 315
301 296 292 290 284 274 261 255 251 252 253 254 256 248 250 255 253 253 256 257 265 275 277 280 280 283 280 282 283 286 285 290 294 294 298 301 305 307 308 311 312 314 316
305 297 291 287 282 263 253 250 248 248 253 251 253 248 244 239 244 255 256 262 269 276 280 291 292 289 285 283 287 288 289 290 292 296 301 301 306 307 309 312 314 313 314
310 304 296 291 273 255 245 240 232 246 249 249 246 245 241 244 250 254 259 254 267 270 283 289 297 293 291 289 290 291 292 295 295 300 301 305 309 311 312 312 312 314 315
320 317 304 293 259 240 235 227 228 245 249 248 248 237 236 236 239 255 260 261 274 275 286 296 296 299 299 297 297 297 296 298 301 304 306 308 312 313 313 313 315 317 317
318 327 296 295 224 216 199 213 219 245 250 249 247 248 240 240 240 256 257 273 274 286 292 298 301 298 300 302 303 302 301 305 305 310 313 313 314 314 314 314 319 323 322
322 333 17 21 252 230 209 211 209 237 245 245 249 255 261 265 265 262 272 276 281 290 292 294 300 297 297 299 298 307 306 310 314 315 316 315 317 320 321 322 323 322 319
344 336 348 333 276 241 200 204 170 211 231 244 255 286 274 290 272 272 290 289 294 298 296 295 304 306 309 311 318 315 312 312 310 324 319 317 323 322 322 322 322 320 320
3 344 342 328 306 231 200 146 133 128 112 251 251 276 285 281 316 341 348 342 338 332 325 329 328 326 329 335 333 327 324 316 313 321 324 320 323 321 321 322 321 322 324
348 324 359 358 350 213 181 187 120 86 45 282 280 294 331 321 331 19 23 18 11 8 1 3 352 349 349 356 337 338 330 324 321 321 324 319 323 321 323 324 326 327 328
9 21 23 48 54 111 105 116 83 46 357 314 304 328 2 3 9 27 46 42 24 19 17 15 10 1 352 351 347 340 328 323 320 321 325 323 323 322 326 328 329 328 326
36 44 40 46 46 65 71 56 55 53 45 26 14 26 44 55 59 54 51 46 29 20 30 15 0 352 345 334 331 332 330 323 323 323 329 325 325 327 324 328 328 323 324